Location: ???????????
(54.6970°N, 39.1477°E)
Time: 13:23:49
(UTC+00:00)

H-2A R/B - Pass Details

Date: 19 May 2025
Orbit: 492 x 574 km, 98.2° (Epoch: 20 June)

Event Time Altitude Azimuth Distance (km) Brightness Sun altitude
Exits shadow 21:17:02 15° 128° (SE) 1,528 4.2 -15.3°
Maximum altitude 21:19:53 37° 66° (ENE) 854 3.5 -15.3°
Drops below altitude 10° 21:23:29 10° 358° (N) 1,797 6.3 -15.3°
Sets 21:25:40 0° 350° (N) 2,677 7.5 -15.3°
